| time (UTC) | temp F | wind direction | speed MPH | gust MPH | rain 1hr in | rain 24hr in | rain mn in | humidity % | barometer mb |
| 20260903224133 | 91 | 105 | 8.0 | 17.0 | 0.00 | 0.00 | 0.00 | 56 | 1010.4 |
| 20260903223623 | 91 | 141 | 7.0 | 16.0 | 0.00 | 0.00 | 0.00 | 56 | 1010.3 |
| 20260903223113 | 92 | 145 | 6.0 | 13.0 | 0.00 | 0.00 | 0.00 | 55 | 1010.4 |
| 20260903222555 | 91 | 146 | 8.0 | 16.0 | 0.00 | 0.00 | 0.00 | 56 | 1010.5 |
| 20260903222545 | 91 | 140 | 8.0 | 16.0 | 0.00 | 0.00 | 0.00 | 56 | 1010.5 |
| 20260903221527 | 92 | 133 | 7.0 | 16.0 | 0.00 | 0.00 | 0.00 | 55 | 1010.5 |
| 20260903221017 | 92 | 152 | 6.0 | 14.0 | 0.00 | 0.00 | 0.00 | 55 | 1010.5 |
| 20260903221008 | 92 | 150 | 6.0 | 13.0 | 0.00 | 0.00 | 0.00 | 54 | 1010.5 |
| 20260903215957 | 93 | 108 | 5.0 | 12.0 | 0.00 | 0.00 | 0.00 | 53 | 1010.4 |
| 20260903215447 | 93 | 176 | 4.0 | 12.0 | 0.00 | 0.00 | 0.00 | 53 | 1010.5 |
| 20260903215438 | 93 | 151 | 5.0 | 15.0 | 0.00 | 0.00 | 0.00 | 54 | 1010.5 |
| 20260903214427 | 93 | 113 | 6.0 | 15.0 | 0.00 | 0.00 | 0.00 | 54 | 1010.5 |
| 20260903213923 | 92 | 184 | 6.0 | 14.0 | 0.00 | 0.00 | 0.00 | 55 | 1010.6 |
| 20260903213430 | 92 | 140 | 7.0 | 13.0 | 0.00 | 0.00 | 0.00 | 56 | 1010.7 |
| 20260903213425 | 92 | 132 | 5.0 | 12.0 | 0.00 | 0.00 | 0.00 | 55 | 1010.6 |
| 20260903212922 | 92 | 134 | 6.0 | 11.0 | 0.00 | 0.00 | 0.00 | 56 | 1010.7 |
| 20260903211921 | 91 | 201 | 7.0 | 13.0 | 0.00 | 0.00 | 0.00 | 56 | 1010.7 |
| 20260903211412 | 92 | 180 | 6.0 | 13.0 | 0.00 | 0.00 | 0.00 | 55 | 1010.8 |
| 20260903210911 | 92 | 234 | 6.0 | 12.0 | 0.00 | 0.00 | 0.00 | 56 | 1011.0 |
| 20260903210352 | 91 | 148 | 6.0 | 12.0 | 0.00 | 0.00 | 0.00 | 57 | 1011.0 |
| 20260903205843 | 91 | 284 | 6.0 | 12.0 | 0.00 | 0.00 | 0.00 | 57 | 1011.1 |
| 20260903205826 | 90 | 218 | 5.0 | 13.0 | 0.00 | 0.00 | 0.00 | 59 | 1011.4 |
| 20260903205429 | 90 | 166 | 6.0 | 13.0 | 0.00 | 0.00 | 0.00 | 58 | 1011.3 |
| 20260903204314 | 91 | 165 | 5.0 | 11.0 | 0.00 | 0.00 | 0.00 | 58 | 1011.4 |
| 20260903203803 | 90 | 188 | 6.0 | 15.0 | 0.00 | 0.00 | 0.00 | 58 | 1011.4 |
| 20260903203253 | 90 | 97 | 7.0 | 15.0 | 0.00 | 0.00 | 0.00 | 59 | 1011.5 |
| 20260903203243 | 90 | 161 | 8.0 | 14.0 | 0.00 | 0.00 | 0.00 | 59 | 1011.6 |
| 20260903202223 | 90 | 195 | 7.0 | 14.0 | 0.00 | 0.00 | 0.00 | 59 | 1011.6 |
| 20260903201714 | 91 | 130 | 5.0 | 12.0 | 0.00 | 0.00 | 0.00 | 58 | 1011.5 |
| 20260903201203 | 92 | 134 | 4.0 | 11.0 | 0.00 | 0.00 | 0.00 | 58 | 1011.5 |
| 20260903201151 | 91 | 117 | 4.0 | 12.0 | 0.00 | 0.00 | 0.00 | 58 | 1011.6 |
| 20260903200141 | 91 | 214 | 7.0 | 15.0 | 0.00 | 0.00 | 0.00 | 58 | 1011.6 |
| 20260903195632 | 92 | 218 | 7.0 | 15.0 | 0.00 | 0.00 | 0.00 | 56 | 1011.6 |
| 20260903195121 | 91 | 200 | 6.0 | 15.0 | 0.00 | 0.00 | 0.00 | 58 | 1011.7 |
| 20260903194613 | 90 | 163 | 7.0 | 12.0 | 0.00 | 0.00 | 0.00 | 60 | 1011.8 |
| 20260903194106 | 90 | 129 | 7.0 | 16.0 | 0.00 | 0.00 | 0.00 | 59 | 1011.8 |
| 20260903193557 | 92 | 182 | 6.0 | 15.0 | 0.00 | 0.00 | 0.00 | 58 | 1011.8 |
| 20260903193551 | 92 | 164 | 7.0 | 19.0 | 0.00 | 0.00 | 0.00 | 57 | 1011.9 |
| 20260903192546 | 91 | 155 | 9.0 | 19.0 | 0.00 | 0.00 | 0.00 | 59 | 1012.0 |
| 20260903192029 | 90 | 194 | 8.0 | 18.0 | 0.00 | 0.00 | 0.00 | 61 | 1012.1 |
| 20260903192019 | 90 | 224 | 7.0 | 15.0 | 0.00 | 0.00 | 0.00 | 61 | 1012.1 |
| 20260903191011 | 89 | 184 | 8.0 | 19.0 | 0.00 | 0.00 | 0.00 | 62 | 1012.2 |
| 20260903190453 | 89 | 188 | 9.0 | 19.0 | 0.00 | 0.00 | 0.00 | 62 | 1012.2 |
| 20260903185949 | 89 | 149 | 9.0 | 17.0 | 0.00 | 0.00 | 0.00 | 62 | 1012.4 |
| 20260903185441 | 89 | 93 | 8.0 | 18.0 | 0.00 | 0.00 | 0.00 | 62 | 1012.5 |
| 20260903184934 | 89 | 149 | 7.0 | 17.0 | 0.00 | 0.00 | 0.00 | 63 | 1012.5 |
| 20260903184926 | 87 | 128 | 9.0 | 17.0 | 0.00 | 0.00 | 0.00 | 65 | 1012.7 |
| 20260903183915 | 87 | 148 | 9.0 | 18.0 | 0.00 | 0.00 | 0.00 | 65 | 1012.8 |
| 20260903183412 | 87 | 243 | 8.0 | 18.0 | 0.00 | 0.00 | 0.00 | 66 | 1012.8 |
| 20260903182859 | 87 | 138 | 8.0 | 17.0 | 0.00 | 0.00 | 0.00 | 66 | 1013.0 |
| 20260903182351 | 87 | 154 | 7.0 | 18.0 | 0.00 | 0.00 | 0.00 | 65 | 1012.9 |
| 20260903181847 | 87 | 195 | 8.0 | 20.0 | 0.00 | 0.00 | 0.00 | 66 | 1012.9 |
| 20260903181344 | 86 | 141 | 8.0 | 20.0 | 0.00 | 0.00 | 0.00 | 66 | 1012.9 |
| 20260903181337 | 87 | 165 | 6.0 | 15.0 | 0.00 | 0.00 | 0.00 | 66 | 1013.0 |
| 20260903180333 | 87 | 159 | 6.0 | 16.0 | 0.00 | 0.00 | 0.00 | 66 | 1013.0 |
| 20260903175830 | 87 | 142 | 7.0 | 16.0 | 0.00 | 0.00 | 0.00 | 65 | 1013.0 |
| 20260903175326 | 88 | 149 | 8.0 | 17.0 | 0.00 | 0.00 | 0.00 | 63 | 1013.0 |
| 20260903174825 | 87 | 137 | 9.0 | 17.0 | 0.00 | 0.00 | 0.00 | 65 | 1013.1 |
| 20260903174317 | 87 | 168 | 9.0 | 17.0 | 0.00 | 0.00 | 0.00 | 65 | 1013.2 |
| 20260903174310 | 87 | 170 | 8.0 | 19.0 | 0.00 | 0.00 | 0.00 | 66 | 1013.2 |
| 20260903173259 | 87 | 196 | 8.0 | 19.0 | 0.00 | 0.00 | 0.00 | 65 | 1013.3 |
| 20260903172757 | 87 | 186 | 7.0 | 21.0 | 0.00 | 0.00 | 0.00 | 67 | 1013.3 |
| 20260903172252 | 86 | 139 | 7.0 | 21.0 | 0.00 | 0.00 | 0.00 | 67 | 1013.3 |
| 20260903171749 | 86 | 186 | 8.0 | 15.0 | 0.00 | 0.00 | 0.00 | 66 | 1013.3 |
| 20260903171239 | 86 | 168 | 9.0 | 17.0 | 0.00 | 0.00 | 0.00 | 67 | 1013.4 |
| 20260903170732 | 86 | 191 | 8.0 | 17.0 | 0.00 | 0.00 | 0.00 | 68 | 1013.4 |
| 20260903170226 | 86 | 134 | 7.0 | 16.0 | 0.00 | 0.00 | 0.00 | 68 | 1013.4 |
| 20260903165720 | 85 | 135 | 8.0 | 14.0 | 0.00 | 0.00 | 0.00 | 70 | 1013.4 |
| 20260903165211 | 85 | 125 | 7.0 | 14.0 | 0.00 | 0.00 | 0.00 | 69 | 1013.3 |
| 20260903164659 | 85 | 159 | 6.0 | 16.0 | 0.00 | 0.00 | 0.00 | 69 | 1013.3 |
| 20260903164152 | 85 | 150 | 8.0 | 16.0 | 0.00 | 0.00 | 0.00 | 69 | 1013.4 |
| 20260903163643 | 84 | 155 | 9.0 | 16.0 | 0.00 | 0.00 | 0.00 | 70 | 1013.4 |
| 20260903163634 | 84 | 143 | 8.0 | 16.0 | 0.00 | 0.00 | 0.00 | 70 | 1013.4 |
| 20260903163246 | 84 | 135 | 7.0 | 15.0 | 0.00 | 0.00 | 0.00 | 70 | 1013.5 |
| 20260903163115 | 84 | 174 | 7.0 | 13.0 | 0.00 | 0.00 | 0.00 | 70 | 1013.5 |
| 20260903161602 | 84 | 170 | 7.0 | 14.0 | 0.00 | 0.00 | 0.00 | 70 | 1013.5 |
| 20260903161052 | 84 | 170 | 7.0 | 17.0 | 0.00 | 0.00 | 0.00 | 71 | 1013.5 |
| 20260903160542 | 84 | 137 | 6.0 | 17.0 | 0.00 | 0.00 | 0.00 | 70 | 1013.5 |
| 20260903160032 | 85 | 155 | 6.0 | 12.0 | 0.00 | 0.00 | 0.00 | 70 | 1013.5 |
| 20260903155522 | 85 | 177 | 7.0 | 12.0 | 0.00 | 0.00 | 0.00 | 70 | 1013.6 |
| 20260903155013 | 84 | 186 | 7.0 | 12.0 | 0.00 | 0.00 | 0.00 | 71 | 1013.5 |
| 20260903154502 | 84 | 190 | 6.0 | 13.0 | 0.00 | 0.00 | 0.00 | 72 | 1013.4 |
| 20260903154453 | 83 | 140 | 7.0 | 13.0 | 0.00 | 0.00 | 0.00 | 72 | 1013.4 |
| 20260903153442 | 82 | 157 | 6.0 | 12.0 | 0.00 | 0.00 | 0.00 | 74 | 1013.4 |
| 20260903152932 | 81 | 184 | 6.0 | 12.0 | 0.00 | 0.00 | 0.00 | 75 | 1013.4 |
| 20260903152422 | 81 | 157 | 4.0 | 11.0 | 0.00 | 0.00 | 0.00 | 76 | 1013.3 |
| 20260903151912 | 81 | 134 | 4.0 | 10.0 | 0.00 | 0.00 | 0.00 | 76 | 1013.5 |
| 20260903151402 | 80 | 122 | 4.0 | 10.0 | 0.00 | 0.00 | 0.00 | 76 | 1013.4 |
| 20260903150852 | 80 | 139 | 4.0 | 10.0 | 0.00 | 0.00 | 0.00 | 76 | 1013.3 |
| 20260903150342 | 80 | 140 | 5.0 | 10.0 | 0.00 | 0.00 | 0.00 | 76 | 1013.3 |
| 20260903145832 | 80 | 160 | 5.0 | 11.0 | 0.00 | 0.00 | 0.00 | 76 | 1013.3 |
| 20260903145823 | 80 | 147 | 4.0 | 11.0 | 0.00 | 0.00 | 0.00 | 76 | 1013.4 |
| 20260903144813 | 80 | 134 | 3.0 | 9.0 | 0.00 | 0.00 | 0.00 | 76 | 1013.5 |
| 20260903144302 | 80 | 142 | 4.0 | 12.0 | 0.00 | 0.00 | 0.00 | 76 | 1013.6 |
| 20260903143752 | 80 | 122 | 4.0 | 12.0 | 0.00 | 0.00 | 0.00 | 76 | 1013.6 |
| 20260903143242 | 80 | 139 | 3.0 | 9.0 | 0.00 | 0.00 | 0.00 | 76 | 1013.6 |
| 20260903142732 | 80 | 101 | 4.0 | 11.0 | 0.00 | 0.00 | 0.00 | 76 | 1013.6 |
| 20260903142725 | 79 | 139 | 3.0 | 11.0 | 0.00 | 0.00 | 0.00 | 77 | 1013.4 |
| 20260903142328 | 80 | 191 | 4.0 | 11.0 | 0.00 | 0.00 | 0.00 | 76 | 1013.5 |
| 20260903141214 | 79 | 141 | 4.0 | 11.0 | 0.00 | 0.00 | 0.00 | 77 | 1013.3 |
| 20260903140657 | 79 | 145 | 4.0 | 12.0 | 0.00 | 0.00 | 0.00 | 77 | 1013.4 |
| 20260903140144 | 79 | 87 | 4.0 | 12.0 | 0.00 | 0.00 | 0.00 | 77 | 1013.4 |
| 20260903135634 | 79 | 134 | 4.0 | 9.0 | 0.00 | 0.00 | 0.00 | 77 | 1013.3 |
| 20260903135124 | 78 | 121 | 3.0 | 8.0 | 0.00 | 0.00 | 0.00 | 77 | 1013.3 |
| 20260903134614 | 78 | 97 | 3.0 | 11.0 | 0.00 | 0.00 | 0.00 | 78 | 1013.4 |
| 20260903134058 | 78 | 156 | 4.0 | 10.0 | 0.00 | 0.00 | 0.00 | 77 | 1013.3 |
| 20260903133540 | 78 | 131 | 4.0 | 10.0 | 0.00 | 0.00 | 0.00 | 78 | 1013.3 |
| 20260903133531 | 78 | 112 | 4.0 | 12.0 | 0.00 | 0.00 | 0.00 | 78 | 1013.3 |
| 20260903132520 | 78 | 133 | 3.0 | 12.0 | 0.00 | 0.00 | 0.00 | 78 | 1013.2 |
| 20260903132010 | 78 | 126 | 4.0 | 11.0 | 0.00 | 0.00 | 0.00 | 78 | 1013.1 |
| 20260903131501 | 78 | 168 | 4.0 | 9.0 | 0.00 | 0.00 | 0.00 | 78 | 1013.1 |
| 20260903130952 | 77 | 118 | 4.0 | 9.0 | 0.00 | 0.00 | 0.00 | 78 | 1013.1 |
| 20260903130442 | 77 | 162 | 3.0 | 8.0 | 0.00 | 0.00 | 0.00 | 78 | 1013.1 |
| 20260903125932 | 77 | 118 | 3.0 | 9.0 | 0.00 | 0.00 | 0.00 | 78 | 1013.1 |
| 20260903125924 | 77 | 109 | 3.0 | 10.0 | 0.00 | 0.00 | 0.00 | 78 | 1013.2 |
| 20260903124913 | 77 | 126 | 2.0 | 10.0 | 0.00 | 0.00 | 0.00 | 78 | 1013.3 |
| 20260903124402 | 77 | 138 | 2.0 | 8.0 | 0.00 | 0.00 | 0.00 | 78 | 1013.2 |
| 20260903123852 | 77 | 135 | 2.0 | 8.0 | 0.00 | 0.00 | 0.00 | 78 | 1013.0 |
| 20260903123342 | 77 | 161 | 3.0 | 8.0 | 0.00 | 0.00 | 0.00 | 78 | 1013.0 |
| 20260903122832 | 77 | 143 | 4.0 | 8.0 | 0.00 | 0.00 | 0.00 | 78 | 1013.0 |
| 20260903122322 | 77 | 133 | 3.0 | 8.0 | 0.00 | 0.00 | 0.00 | 78 | 1013.0 |
| 20260903121812 | 77 | 133 | 2.0 | 7.0 | 0.00 | 0.00 | 0.00 | 77 | 1013.0 |
| 20260903121302 | 77 | 123 | 2.0 | 7.0 | 0.00 | 0.00 | 0.00 | 77 | 1012.9 |
| 20260903120752 | 77 | 150 | 3.0 | 8.0 | 0.00 | 0.00 | 0.00 | 77 | 1012.8 |
| 20260903120234 | 77 | 134 | 2.0 | 8.0 | 0.00 | 0.00 | 0.00 | 77 | 1012.8 |
| 20260903115724 | 77 | 146 | 1.0 | 4.0 | 0.00 | 0.00 | 0.00 | 76 | 1012.7 |
| 20260903115214 | 77 | 119 | 1.0 | 4.0 | 0.00 | 0.00 | 0.00 | 76 | 1012.8 |
| 20260903115205 | 77 | 113 | 2.0 | 6.0 | 0.00 | 0.00 | 0.00 | 76 | 1012.8 |
| 20260903114154 | 77 | 109 | 2.0 | 6.0 | 0.00 | 0.00 | 0.00 | 76 | 1012.8 |
| 20260903113645 | 77 | 86 | 2.0 | 6.0 | 0.00 | 0.00 | 0.00 | 76 | 1012.7 |
| 20260903113134 | 77 | 101 | 2.0 | 5.0 | 0.00 | 0.00 | 0.00 | 75 | 1012.7 |
| 20260903112623 | 78 | 95 | 2.0 | 5.0 | 0.00 | 0.00 | 0.00 | 75 | 1012.8 |
| 20260903112115 | 77 | 93 | 2.0 | 7.0 | 0.00 | 0.00 | 0.00 | 75 | 1012.8 |
| 20260903112105 | 77 | 123 | 2.0 | 7.0 | 0.00 | 0.00 | 0.00 | 75 | 1012.8 |
| 20260903111055 | 77 | 82 | 2.0 | 6.0 | 0.00 | 0.00 | 0.00 | 75 | 1012.8 |
| 20260903110544 | 77 | 95 | 2.0 | 5.0 | 0.00 | 0.00 | 0.00 | 75 | 1012.7 |
| 20260903110044 | 77 | 88 | 1.0 | 4.0 | 0.00 | 0.00 | 0.00 | 75 | 1012.7 |
| 20260903105534 | 77 | 89 | 1.0 | 4.0 | 0.00 | 0.00 | 0.00 | 74 | 1012.6 |
| 20260903105525 | 78 | 89 | 1.0 | 4.0 | 0.00 | 0.00 | 0.00 | 74 | 1012.6 |
| 20260903105019 | 78 | 89 | 1.0 | 4.0 | 0.00 | 0.00 | 0.00 | 74 | 1012.6 |
| 20260903103959 | 78 | 89 | 1.0 | 4.0 | 0.00 | 0.00 | 0.00 | 74 | 1012.5 |
| 20260903103449 | 78 | 89 | 2.0 | 4.0 | 0.00 | 0.00 | 0.00 | 74 | 1012.5 |
| 20260903102940 | 78 | 90 | 2.0 | 5.0 | 0.00 | 0.00 | 0.00 | 74 | 1012.5 |
| 20260903102430 | 78 | 91 | 2.0 | 6.0 | 0.00 | 0.00 | 0.00 | 75 | 1012.4 |
| 20260903101921 | 78 | 91 | 2.0 | 6.0 | 0.00 | 0.00 | 0.00 | 75 | 1012.4 |
| 20260903101412 | 78 | 110 | 1.0 | 5.0 | 0.00 | 0.00 | 0.00 | 75 | 1012.4 |
| 20260903101403 | 78 | 99 | 1.0 | 5.0 | 0.00 | 0.00 | 0.00 | 74 | 1012.5 |
| 20260903100358 | 78 | 126 | 2.0 | 6.0 | 0.00 | 0.00 | 0.00 | 74 | 1012.5 |
| 20260903100351 | 78 | 124 | 3.0 | 6.0 | 0.00 | 0.00 | 0.00 | 74 | 1012.5 |
| 20260903095350 | 78 | 89 | 2.0 | 4.0 | 0.00 | 0.00 | 0.00 | 74 | 1012.5 |
| 20260903094851 | 78 | 120 | 1.0 | 4.0 | 0.00 | 0.00 | 0.00 | 74 | 1012.5 |
| 20260903094341 | 78 | 127 | 2.0 | 4.0 | 0.00 | 0.00 | 0.00 | 74 | 1012.5 |
| 20260903093833 | 78 | 107 | 2.0 | 4.0 | 0.00 | 0.00 | 0.00 | 74 | 1012.5 |
| 20260903093330 | 78 | 106 | 2.0 | 5.0 | 0.00 | 0.00 | 0.00 | 74 | 1012.6 |
| 20260903093324 | 78 | 85 | 2.0 | 5.0 | 0.00 | 0.00 | 0.00 | 74 | 1012.4 |
| 20260903092314 | 78 | 86 | 1.0 | 5.0 | 0.00 | 0.00 | 0.00 | 74 | 1012.4 |
| 20260903091807 | 78 | 116 | 0.0 | 0.0 | 0.00 | 0.00 | 0.00 | 73 | 1012.4 |
| 20260903091302 | 78 | 158 | 0.0 | 0.0 | 0.00 | 0.00 | 0.00 | 73 | 1012.4 |
| 20260903090754 | 78 | 218 | 0.0 | 0.0 | 0.00 | 0.00 | 0.00 | 73 | 1012.4 |
| 20260903090247 | 78 | 221 | 0.0 | 0.0 | 0.00 | 0.00 | 0.00 | 72 | 1012.3 |
| 20260903085734 | 78 | 213 | 0.0 | 0.0 | 0.00 | 0.00 | 0.00 | 72 | 1012.4 |
| 20260903085228 | 78 | 213 | 0.0 | 0.0 | 0.00 | 0.00 | 0.00 | 72 | 1012.4 |
| 20260903084720 | 78 | 216 | 0.0 | 0.0 | 0.00 | 0.00 | 0.00 | 71 | 1012.5 |
| 20260903084210 | 78 | 216 | 0.0 | 0.0 | 0.00 | 0.00 | 0.00 | 71 | 1012.6 |
| 20260903083702 | 79 | 228 | 0.0 | 0.0 | 0.00 | 0.00 | 0.00 | 71 | 1012.5 |
| 20260903083157 | 79 | 228 | 0.0 | 0.0 | 0.00 | 0.00 | 0.00 | 71 | 1012.6 |
| 20260903082650 | 79 | 267 | 0.0 | 0.0 | 0.00 | 0.00 | 0.00 | 71 | 1012.6 |
| 20260903082142 | 79 | 217 | 0.0 | 0.0 | 0.00 | 0.00 | 0.00 | 70 | 1012.6 |
| 20260903081630 | 79 | 218 | 0.0 | 1.0 | 0.00 | 0.00 | 0.00 | 70 | 1012.5 |
| 20260903081129 | 79 | 218 | 0.0 | 1.0 | 0.00 | 0.00 | 0.00 | 70 | 1012.4 |
| 20260903080623 | 79 | 218 | 0.0 | 1.0 | 0.00 | 0.00 | 0.00 | 70 | 1012.4 |
| 20260903080109 | 79 | 218 | 0.0 | 2.0 | 0.00 | 0.00 | 0.00 | 70 | 1012.4 |
| 20260903075555 | 79 | 218 | 1.0 | 4.0 | 0.00 | 0.00 | 0.00 | 70 | 1012.4 |
| 20260903075052 | 79 | 218 | 1.0 | 7.0 | 0.00 | 0.00 | 0.00 | 70 | 1012.5 |
| 20260903074544 | 79 | 193 | 2.0 | 7.0 | 0.00 | 0.00 | 0.00 | 69 | 1012.6 |
| 20260903074039 | 79 | 186 | 1.0 | 5.0 | 0.00 | 0.00 | 0.00 | 69 | 1012.6 |
| 20260903073533 | 79 | 157 | 2.0 | 5.0 | 0.00 | 0.00 | 0.00 | 69 | 1012.6 |
| 20260903073526 | 80 | 167 | 1.0 | 4.0 | 0.00 | 0.00 | 0.00 | 69 | 1012.7 |
| 20260903072515 | 80 | 157 | 2.0 | 5.0 | 0.00 | 0.00 | 0.00 | 69 | 1012.7 |
| 20260903072006 | 80 | 157 | 2.0 | 5.0 | 0.00 | 0.00 | 0.00 | 68 | 1012.7 |
| 20260903071500 | 80 | 163 | 1.0 | 4.0 | 0.00 | 0.00 | 0.00 | 68 | 1012.6 |
| 20260903070949 | 80 | 199 | 1.0 | 4.0 | 0.00 | 0.00 | 0.00 | 68 | 1012.7 |
| 20260903070932 | 80 | 184 | 1.0 | 3.0 | 0.00 | 0.00 | 0.00 | 67 | 1033.8 |
| 20260903070535 | 80 | 180 | 1.0 | 3.0 | 0.00 | 0.00 | 0.00 | 68 | 1012.6 |
| 20260903065419 | 80 | 177 | 0.0 | 3.0 | 0.00 | 0.00 | 0.00 | 67 | 1012.5 |
| 20260903064910 | 80 | 103 | 0.0 | 3.0 | 0.00 | 0.00 | 0.00 | 67 | 1012.5 |
| 20260903064359 | 81 | 103 | 0.0 | 3.0 | 0.00 | 0.00 | 0.00 | 67 | 1012.6 |
| 20260903063852 | 81 | 103 | 1.0 | 3.0 | 0.00 | 0.00 | 0.00 | 67 | 1012.6 |
| 20260903063351 | 81 | 101 | 1.0 | 3.0 | 0.00 | 0.00 | 0.00 | 67 | 1012.8 |
| 20260903062845 | 81 | 104 | 1.0 | 5.0 | 0.00 | 0.00 | 0.00 | 66 | 1012.8 |
| 20260903062335 | 81 | 105 | 2.0 | 6.0 | 0.00 | 0.00 | 0.00 | 66 | 1012.9 |
| 20260903061825 | 81 | 95 | 2.0 | 6.0 | 0.00 | 0.00 | 0.00 | 66 | 1012.9 |
| 20260903061315 | 81 | 94 | 3.0 | 7.0 | 0.00 | 0.00 | 0.00 | 66 | 1012.9 |
| 20260903060805 | 81 | 89 | 3.0 | 7.0 | 0.00 | 0.00 | 0.00 | 66 | 1013.0 |
| 20260903060255 | 81 | 103 | 2.0 | 6.0 | 0.00 | 0.00 | 0.00 | 66 | 1013.1 |
| 20260903060246 | 82 | 89 | 3.0 | 7.0 | 0.00 | 0.00 | 0.00 | 65 | 1013.1 |
| 20260903055245 | 82 | 99 | 4.0 | 7.0 | 0.00 | 0.00 | 0.00 | 65 | 1013.1 |
| 20260903054735 | 82 | 98 | 4.0 | 9.0 | 0.00 | 0.00 | 0.00 | 65 | 1013.2 |
| 20260903054727 | 82 | 267 | 4.0 | 9.0 | 0.00 | 0.00 | 0.00 | 64 | 1013.3 |
| 20260903053715 | 82 | 69 | 5.0 | 16.0 | 0.00 | 0.00 | 0.00 | 64 | 1013.2 |
| 20260903053205 | 82 | 109 | 7.0 | 16.0 | 0.00 | 0.00 | 0.00 | 64 | 1013.2 |
| 20260903052655 | 82 | 101 | 6.0 | 13.0 | 0.00 | 0.00 | 0.00 | 63 | 1013.3 |
| 20260903052145 | 83 | 97 | 4.0 | 10.0 | 0.00 | 0.00 | 0.00 | 63 | 1013.2 |
| 20260903051644 | 83 | 95 | 4.0 | 11.0 | 0.00 | 0.00 | 0.00 | 63 | 1013.1 |
| 20260903051639 | 83 | 88 | 3.0 | 8.0 | 0.00 | 0.00 | 0.00 | 63 | 1013.2 |
| 20260903051130 | 83 | 93 | 4.0 | 10.0 | 0.00 | 0.00 | 0.00 | 62 | 1013.1 |
| 20260903050734 | 83 | 80 | 5.0 | 11.0 | 0.00 | 0.00 | 0.00 | 63 | 1013.1 |
| 20260903045625 | 83 | 99 | 3.0 | 10.0 | 0.00 | 0.00 | 0.00 | 62 | 1013.1 |
| 20260903045126 | 83 | 86 | 4.0 | 14.0 | 0.00 | 0.00 | 0.00 | 62 | 1013.0 |
| 20260903044616 | 83 | 115 | 4.0 | 14.0 | 0.00 | 0.00 | 0.00 | 61 | 1013.0 |
| 20260903044058 | 84 | 64 | 4.0 | 10.0 | 0.00 | 0.00 | 0.00 | 61 | 1013.0 |
| 20260903043549 | 84 | 120 | 4.0 | 14.0 | 0.00 | 0.00 | 0.00 | 61 | 1012.9 |
| 20260903043539 | 84 | 73 | 4.0 | 14.0 | 0.00 | 0.00 | 0.00 | 60 | 1013.0 |
| 20260903042528 | 84 | 87 | 3.0 | 10.0 | 0.00 | 0.00 | 0.00 | 60 | 1012.9 |
| 20260903042018 | 84 | 110 | 3.0 | 7.0 | 0.00 | 0.00 | 0.00 | 60 | 1012.9 |
| 20260903041508 | 84 | 91 | 4.0 | 12.0 | 0.00 | 0.00 | 0.00 | 60 | 1013.0 |
| 20260903041459 | 85 | 70 | 5.0 | 12.0 | 0.00 | 0.00 | 0.00 | 59 | 1013.0 |
| 20260903040448 | 85 | 61 | 4.0 | 11.0 | 0.00 | 0.00 | 0.00 | 59 | 1013.1 |
| 20260903035938 | 85 | 129 | 5.0 | 11.0 | 0.00 | 0.00 | 0.00 | 59 | 1013.1 |
| 20260903035430 | 85 | 90 | 4.0 | 12.0 | 0.00 | 0.00 | 0.00 | 58 | 1013.1 |
| 20260903035419 | 85 | 117 | 4.0 | 12.0 | 0.00 | 0.00 | 0.00 | 58 | 1013.0 |
| 20260903034400 | 86 | 77 | 5.0 | 15.0 | 0.00 | 0.00 | 0.00 | 58 | 1013.0 |
| 20260903033850 | 86 | 146 | 6.0 | 15.0 | 0.00 | 0.00 | 0.00 | 58 | 1012.9 |
| 20260903033340 | 86 | 89 | 6.0 | 15.0 | 0.00 | 0.00 | 0.00 | 57 | 1012.9 |
| 20260903032832 | 86 | 76 | 6.0 | 15.0 | 0.00 | 0.00 | 0.00 | 57 | 1012.8 |
| 20260903032324 | 87 | 90 | 6.0 | 15.0 | 0.00 | 0.00 | 0.00 | 56 | 1012.8 |
| 20260903031806 | 87 | 107 | 5.0 | 17.0 | 0.00 | 0.00 | 0.00 | 55 | 1012.8 |
| 20260903031301 | 87 | 107 | 6.0 | 17.0 | 0.00 | 0.00 | 0.00 | 55 | 1012.8 |
| 20260903030802 | 87 | 101 | 6.0 | 15.0 | 0.00 | 0.00 | 0.00 | 55 | 1012.7 |
| 20260903030254 | 87 | 128 | 6.0 | 13.0 | 0.00 | 0.00 | 0.00 | 55 | 1012.7 |
| 20260903025750 | 87 | 68 | 6.0 | 15.0 | 0.00 | 0.00 | 0.00 | 54 | 1012.7 |
| 20260903025242 | 88 | 103 | 5.0 | 15.0 | 0.00 | 0.00 | 0.00 | 54 | 1012.5 |
| 20260903024740 | 88 | 117 | 4.0 | 13.0 | 0.00 | 0.00 | 0.00 | 54 | 1012.4 |
| 20260903024734 | 88 | 96 | 4.0 | 12.0 | 0.00 | 0.00 | 0.00 | 54 | 1012.5 |
| 20260903023722 | 88 | 88 | 5.0 | 13.0 | 0.00 | 0.00 | 0.00 | 53 | 1012.2 |
| 20260903023220 | 88 | 97 | 5.0 | 14.0 | 0.00 | 0.00 | 0.00 | 53 | 1012.2 |
| 20260903023215 | 89 | 161 | 4.0 | 12.0 | 0.00 | 0.00 | 0.00 | 52 | 1012.3 |
| 20260903022709 | 89 | 102 | 4.0 | 12.0 | 0.00 | 0.00 | 0.00 | 51 | 1012.2 |
| 20260903021704 | 89 | 121 | 4.0 | 16.0 | 0.00 | 0.00 | 0.00 | 51 | 1012.1 |
| 20260903021207 | 90 | 94 | 3.0 | 12.0 | 0.00 | 0.00 | 0.00 | 51 | 1011.8 |
| 20260903021201 | 90 | 99 | 4.0 | 16.0 | 0.00 | 0.00 | 0.00 | 50 | 1012.0 |
| 20260903020655 | 90 | 89 | 3.0 | 11.0 | 0.00 | 0.00 | 0.00 | 50 | 1011.9 |
| 20260903015649 | 90 | 112 | 4.0 | 12.0 | 0.00 | 0.00 | 0.00 | 51 | 1011.8 |
| 20260903015146 | 90 | 136 | 7.0 | 19.0 | 0.00 | 0.00 | 0.00 | 51 | 1011.8 |
| 20260903014644 | 90 | 112 | 7.0 | 19.0 | 0.00 | 0.00 | 0.00 | 50 | 1011.8 |
| 20260903014127 | 91 | 145 | 6.0 | 14.0 | 0.00 | 0.00 | 0.00 | 49 | 1011.6 |
| 20260903014123 | 91 | 134 | 6.0 | 14.0 | 0.00 | 0.00 | 0.00 | 50 | 1011.7 |
| 20260903013118 | 91 | 120 | 6.0 | 14.0 | 0.00 | 0.00 | 0.00 | 49 | 1011.6 |
| 20260903012617 | 92 | 73 | 5.0 | 13.0 | 0.00 | 0.00 | 0.00 | 48 | 1011.6 |
| 20260903012103 | 92 | 166 | 4.0 | 12.0 | 0.00 | 0.00 | 0.00 | 48 | 1011.5 |
| 20260903011556 | 92 | 109 | 5.0 | 15.0 | 0.00 | 0.00 | 0.00 | 48 | 1011.5 |
| 20260903011051 | 92 | 172 | 5.0 | 15.0 | 0.00 | 0.00 | 0.00 | 47 | 1011.5 |
| 20260903010549 | 93 | 127 | 5.0 | 13.0 | 0.00 | 0.00 | 0.00 | 47 | 1011.3 |
| 20260903010544 | 93 | 105 | 5.0 | 10.0 | 0.00 | 0.00 | 0.00 | 47 | 1011.3 |
| 20260903005537 | 93 | 68 | 5.0 | 10.0 | 0.00 | 0.00 | 0.00 | 47 | 1011.3 |
| 20260903005035 | 93 | 89 | 4.0 | 9.0 | 0.00 | 0.00 | 0.00 | 46 | 1011.3 |
| 20260903004530 | 94 | 111 | 4.0 | 10.0 | 0.00 | 0.00 | 0.00 | 46 | 1011.2 |
| 20260903004023 | 94 | 101 | 5.0 | 12.0 | 0.00 | 0.00 | 0.00 | 45 | 1011.2 |
| 20260903003514 | 94 | 93 | 6.0 | 13.0 | 0.00 | 0.00 | 0.00 | 44 | 1011.2 |
| 20260903003005 | 94 | 81 | 6.0 | 21.0 | 0.00 | 0.00 | 0.00 | 43 | 1011.3 |
| 20260903002454 | 94 | 92 | 7.0 | 21.0 | 0.00 | 0.00 | 0.00 | 42 | 1011.2 |
| 20260903001942 | 95 | 97 | 8.0 | 18.0 | 0.00 | 0.00 | 0.00 | 42 | 1011.2 |
| 20260903001433 | 95 | 78 | 8.0 | 23.0 | 0.00 | 0.00 | 0.00 | 42 | 1011.1 |
| 20260903000925 | 96 | 77 | 8.0 | 23.0 | 0.00 | 0.00 | 0.00 | 42 | 1011.1 |
| 20260903000417 | 97 | 57 | 7.0 | 23.0 | 0.00 | 0.00 | 0.00 | 42 | 1011.1 |
| 20260902235905 | 97 | 74 | 6.0 | 23.0 | 0.00 | 0.00 | 0.00 | 41 | 1011.1 |
| 20260902235355 | 97 | 89 | 4.0 | 11.0 | 0.00 | 0.00 | 0.00 | 38 | 1011.0 |
| 20260902235124 | 97 | 92 | 3.0 | 9.0 | 0.00 | 0.00 | 0.00 | 38 | 1010.8 |
| 20260902235044 | 98 | 74 | 4.0 | 9.0 | 0.00 | 0.00 | 0.00 | 37 | 1010.8 |
| 20260902235005 | 98 | 85 | 5.0 | 13.0 | 0.00 | 0.00 | 0.00 | 37 | 1010.8 |
| 20260902233306 | 98 | 126 | 5.0 | 16.0 | 0.00 | 0.00 | 0.00 | 37 | 1010.8 |
| 20260902232758 | 98 | 87 | 5.0 | 16.0 | 0.00 | 0.00 | 0.00 | 38 | 1010.8 |
| 20260902232250 | 98 | 86 | 4.0 | 12.0 | 0.00 | 0.00 | 0.00 | 38 | 1010.7 |
| 20260902231748 | 98 | 72 | 3.0 | 11.0 | 0.00 | 0.00 | 0.00 | 37 | 1010.7 |
| 20260902231240 | 98 | 5 | 4.0 | 10.0 | 0.00 | 0.00 | 0.00 | 37 | 1010.7 |
| 20260902230739 | 98 | 59 | 4.0 | 8.0 | 0.00 | 0.00 | 0.00 | 37 | 1010.7 |
| 20260902230230 | 98 | 59 | 3.0 | 7.0 | 0.00 | 0.00 | 0.00 | 36 | 1010.7 |
| 20260902225719 | 98 | 115 | 3.0 | 10.0 | 0.00 | 0.00 | 0.00 | 36 | 1010.7 |
| 20260902225202 | 98 | 83 | 4.0 | 10.0 | 0.00 | 0.00 | 0.00 | 36 | 1010.8 |
| 20260902224651 | 99 | 62 | 4.0 | 9.0 | 0.00 | 0.00 | 0.00 | 35 | 1010.8 |